Location: *
(45.1961°N, 1.9694°E)
Time: 18:26:18
(UTC+00:00)

Lacrosse 4 Rocket - Pass Details

Date: 25 August 2019
Orbit: 544 x 615 km, 68.0° (Epoch: 13 October)

Event Time Altitude Azimuth Distance (km) Brightness Sun altitude
Rises 22:26:00 0° 337° (NNW) 2,767 6.1 -30.8°
Reaches altitude 10° 22:28:30 10° 349° (N) 1,855 4.8 -30.9°
Enters shadow 22:30:25 21° 11° (N) 1,285 3.6 -31.1°
